Temperature
17 18 17 18 18 18 20 22 24 23 23 23 23 23 22 20 20 17 16 16 15 15 16 15 15 15 15 15 15 15 15 15 15 15 15 15 15 15 15 15 15 15 15 15 15 15 15 15 15
17 17 17 18 18 19 21 22 23 23 22 22 22 22 21 19 18 16 16 15 15 15 16 15 15 15 15 15 15 15 15 15 15 15 15 15 15 15 15 15 15 15 15 15 15 15 15 15 15
17 17 18 18 19 20 22 23 22 22 22 22 21 21 20 18 17 16 16 15 15 15 15 15 15 15 15 15 15 15 15 15 15 15 15 15 15 15 15 15 15 15 15 15 15 15 15 15 15
16 17 18 18 19 21 22 22 21 21 21 21 21 20 18 17 16 16 16 15 15 14 15 15 15 15 15 15 15 15 15 15 15 15 15 15 15 14 14 15 14 14 14 14 14 14 14 14 14
16 18 18 18 20 21 22 22 22 21 21 21 21 19 17 16 16 16 15 15 14 14 14 15 15 15 14 14 14 14 14 14 14 14 14 14 14 14 14 14 14 14 14 14 14 14 14 14 14
17 18 18 18 20 21 21 22 22 21 21 21 20 19 16 15 15 15 15 15 14 14 14 14 14 14 14 14 14 14 14 14 14 14 14 14 14 14 14 14 14 14 14 14 14 14 14 14 14
17 17 17 19 20 20 21 21 21 21 20 20 20 19 16 15 15 15 15 14 14 14 14 14 14 14 14 14 14 14 14 14 14 14 14 14 14 14 14 14 14 14 14 14 14 14 14 14 14
16 17 18 19 19 20 20 20 20 20 19 19 19 18 15 15 15 14 14 14 14 14 14 13 14 14 14 14 13 14 14 14 14 13 13 13 13 13 13 14 13 13 13 13 14 14 14 14 14
16 16 16 18 19 19 19 19 19 18 18 18 17 17 16 15 14 14 14 14 13 13 13 13 13 13 13 13 13 13 13 13 13 13 13 13 13 13 13 13 13 13 13 13 13 13 14 13 13
16 15 16 18 18 18 18 18 18 18 17 17 16 15 15 15 14 14 13 13 13 13 13 13 13 13 13 13 13 13 13 13 13 13 13 13 13 13 13 13 13 13 13 13 13 13 13 13 13
16 15 16 17 17 17 17 17 17 17 16 16 16 15 14 14 14 13 13 13 13 13 13 13 13 13 12 12 12 12 12 12 12 12 12 12 12 12 12 13 13 13 13 13 13 13 13 13 13
16 16 16 16 16 16 16 16 16 16 16 16 16 15 14 14 13 13 13 13 12 12 12 13 12 12 12 12 12 12 12 12 12 12 12 12 12 12 12 12 12 12 12 12 12 12 12 12 12
15 15 15 15 15 15 15 15 15 15 15 15 15 14 14 14 13 13 13 12 12 12 12 12 12 12 12 12 12 12 12 12 12 12 12 12 11 11 11 12 12 12 12 12 12 12 12 12 12
15 15 15 15 15 14 14 15 15 15 15 15 14 14 14 14 13 13 12 12 12 12 12 12 12 12 12 12 12 12 12 12 11 11 11 11 11 11 11 11 11 11 11 11 11 11 11 11 11
14 14 14 14 14 14 14 13 14 14 14 14 14 14 13 13 13 12 12 12 12 12 12 12 12 12 12 12 12 11 11 11 11 11 11 11 11 11 11 11 11 11 11 11 11 11 11 11 11
14 13 13 14 14 14 13 12 14 14 14 14 14 13 13 12 12 12 12 12 12 12 12 12 11 11 11 11 11 11 11 11 11 11 11 11 11 11 11 11 11 11 11 11 10 10 10 10 10
13 12 13 14 14 14 13 12 13 14 14 13 14 13 13 12 12 11 11 11 11 11 11 11 11 11 11 11 11 11 11 10 10 10 10 10 10 10 10 10 10 10 10 10 10 10 10 10 10
12 13 14 14 14 13 12 12 13 13 13 13 13 13 13 12 11 11 11 11 11 11 11 11 11 11 10 10 10 10 10 10 10 10 10 10 10 10 10 10 10 10 10 10 10 10 10 10 9
12 12 13 13 13 12 11 12 12 12 12 12 13 13 12 12 11 11 11 10 10 10 10 10 10 10 10 10 10 10 9 9 9 9 9 9 9 9 9 9 9 9 9 9 9 9 9 9 9
12 11 12 12 12 12 11 11 12 12 11 12 12 12 12 11 11 10 10 10 10 10 10 10 10 10 9 9 9 9 9 9 9 9 9 9 9 9 9 9 9 9 9 9 9 9 9 9 8
11 11 11 11 11 11 10 10 11 12 12 12 12 12 12 11 10 10 10 10 9 9 9 9 9 9 9 9 9 8 8 8 8 8 8 8 8 8 8 8 8 8 8 8 8 8 8 8 8
10 11 11 10 9 9 11 9 11 12 11 11 11 11 11 11 10 10 9 9 9 9 9 9 9 9 9 9 8 8 8 8 8 8 8 8 8 8 8 8 8 8 8 8 8 8 8 8 8
10 10 10 10 9 8 9 9 10 11 11 11 11 11 11 11 10 9 9 8 8 8 8 8 8 8 8 8 8 8 7 7 7 7 7 7 7 7 7 7 8 7 7 7 8 7 7 7 7
10 9 9 9 8 7 9 9 9 10 11 11 10 11 10 10 9 9 8 8 8 8 8 8 8 8 8 8 8 7 7 7 7 7 7 7 7 7 7 7 7 7 7 7 7 7 7 7 7
8 8 7 7 7 7 9 9 9 11 10 10 10 10 10 9 9 8 8 7 7 7 8 7 7 7 7 7 7 7 7 6 6 6 6 6 6 6 6 6 6 6 6 6 6 6 6 6 6
8 8 7 7 7 8 9 8 9 10 10 10 10 9 9 8 8 7 7 7 7 7 7 7 7 7 7 7 7 7 6 6 6 6 6 6 6 6 6 6 6 6 6 6 6 6 6 6 6
8 7 8 7 7 7 8 9 10 9 9 9 9 8 8 7 7 7 6 6 6 6 6 7 7 6 6 7 7 6 6 6 6 6 5 5 5 5 5 5 5 5 5 5 5 5 5 6 5
7 7 6 6 6 7 8 9 8 8 8 8 7 7 7 7 6 6 6 6 6 6 6 6 6 6 6 6 6 6 6 6 5 5 5 5 5 5 5 5 5 5 5 5 5 5 5 5 5
6 6 6 6 6 6 7 8 9 8 8 7 7 7 7 6 6 5 5 5 5 5 6 6 6 6 6 6 6 5 5 5 5 5 5 5 5 5 5 4 4 4 4 4 4 4 4 4 5
6 6 5 5 5 6 6 6 8 8 8 7 7 7 7 6 6 5 5 5 5 5 5 5 5 5 5 5 5 5 5 5 5 5 4 4 4 4 4 4 4 4 4 4 4 4 4 4 4
Wind_Speed
13 12 7 3 3 5 9 5 1 3 2 4 5 3 4 5 5 7 4 6 9 10 12 11 11 10 10 10 10 10 10 10 11 10 10 9 9 9 9 9 10 10 11 11 11 12 12 12 13
11 8 4 3 4 7 7 4 3 3 4 3 3 2 2 6 7 8 5 7 9 10 12 11 10 10 10 10 10 10 10 10 10 10 10 9 9 9 9 9 9 10 10 10 11 12 12 12 12
9 8 4 4 6 8 3 3 5 5 4 2 1 2 3 5 6 5 7 8 9 10 12 12 11 10 10 9 9 9 9 9 9 9 9 9 9 8 9 9 9 10 10 10 10 11 11 11 11
5 4 4 6 11 7 2 2 4 4 3 2 3 4 5 6 4 6 8 8 9 10 12 12 11 10 10 9 9 9 9 9 9 8 9 9 9 9 9 9 9 9 9 9 10 10 10 10 10
4 4 6 8 12 6 1 2 1 3 4 4 3 4 6 5 8 9 8 7 8 9 12 12 11 10 10 9 9 8 8 8 8 8 7 7 8 8 8 8 8 8 8 8 9 9 9 9 8
4 4 6 9 10 5 2 2 3 4 2 4 3 3 5 6 7 8 8 7 7 8 10 11 11 10 9 8 8 8 8 8 8 7 7 6 6 7 7 8 8 8 8 8 8 8 8 8 7
4 5 8 10 8 5 2 2 3 3 1 1 1 3 6 6 6 7 7 7 7 8 8 9 9 8 8 8 8 8 7 7 7 7 7 7 6 6 7 7 7 7 7 7 7 7 7 7 6
4 4 8 9 8 5 1 1 2 2 1 2 2 2 6 7 6 6 7 7 7 6 7 6 7 7 6 6 7 7 7 7 7 7 7 6 6 6 6 6 7 7 6 6 6 6 6 5 5
4 5 7 7 6 2 2 0 2 2 1 1 2 4 7 11 8 7 6 6 6 5 5 5 5 5 5 5 6 6 6 6 6 5 5 5 4 4 5 6 6 6 5 5 5 5 5 4 4
4 5 6 4 5 3 1 0 1 1 1 1 3 7 9 9 8 7 6 6 6 6 5 4 4 4 4 4 5 4 4 5 4 3 4 2 3 4 4 6 6 5 5 4 4 4 4 3 3
4 5 4 4 5 4 3 3 4 4 4 3 3 7 8 7 7 7 6 5 5 5 5 5 4 4 4 3 3 3 3 3 3 3 3 2 3 4 4 4 4 4 4 3 3 3 2 3 2
5 5 4 5 4 4 5 4 5 5 3 1 1 5 7 8 7 6 5 5 5 5 4 4 4 4 3 3 2 2 2 2 2 2 3 2 1 2 2 2 2 3 3 3 3 3 3 3 3
6 5 5 4 3 4 6 7 6 5 2 0 1 2 5 6 6 5 5 5 5 5 4 4 4 4 3 2 1 2 2 2 2 3 3 3 2 1 1 1 1 1 2 2 2 2 2 2 2
2 3 5 5 5 5 7 8 6 6 4 4 4 4 5 5 5 4 4 5 5 5 4 4 4 3 3 2 2 1 2 3 3 3 3 3 2 1 1 1 1 1 1 1 2 2 2 2 2
3 4 6 7 7 4 4 9 9 6 5 5 5 5 4 4 4 5 4 4 4 4 4 4 4 3 3 2 2 1 2 3 2 3 3 3 2 2 1 1 1 1 0 1 1 2 2 1 1
6 6 5 5 6 3 4 9 5 4 5 6 5 5 4 4 4 3 3 3 4 4 4 4 3 3 3 2 1 1 2 3 2 3 3 3 2 3 1 1 1 1 1 1 1 1 1 1 1
5 5 7 4 5 3 5 8 3 2 5 7 6 5 5 4 3 3 3 3 3 3 3 4 4 3 3 3 2 2 2 2 2 3 2 2 2 2 2 1 1 1 1 1 0 1 1 1 1
3 6 7 5 4 4 7 9 6 3 5 5 5 5 5 5 5 4 4 4 3 3 3 4 4 3 3 3 2 2 2 1 2 2 2 1 1 2 2 2 1 1 1 1 1 0 1 1 2
7 8 9 5 2 4 9 11 9 5 5 5 5 5 5 5 5 5 5 4 3 3 3 3 3 3 3 2 2 2 1 1 1 1 1 1 1 1 2 1 1 1 1 1 1 1 1 1 1
7 9 8 5 2 4 8 12 10 7 7 7 6 5 5 5 4 5 5 4 4 3 3 3 3 3 3 2 2 2 2 1 1 1 1 1 2 2 2 2 1 1 1 1 1 1 1 0 1
8 7 7 6 6 6 7 9 8 7 7 6 6 4 4 6 6 5 5 4 4 3 3 2 3 3 3 3 2 2 1 1 1 1 1 0 1 2 2 3 2 1 2 2 2 2 2 2 1
6 3 5 6 5 5 4 6 6 6 7 7 7 5 5 4 4 5 5 4 3 3 3 2 2 3 3 4 4 4 3 2 3 2 2 1 1 1 2 2 3 2 1 2 2 1 1 2 2
3 3 5 6 6 7 6 5 6 4 5 7 7 6 5 5 4 5 4 4 3 3 3 2 2 2 3 4 5 4 4 3 2 2 2 2 1 1 1 2 2 2 2 2 2 1 1 2 2
2 3 5 4 3 6 7 6 6 3 4 3 4 4 4 4 4 4 3 3 3 2 2 2 3 3 3 4 4 5 5 3 3 2 3 3 2 2 2 2 2 2 2 3 2 2 2 1 2
2 1 1 1 3 6 3 4 6 1 2 2 2 3 3 3 4 3 3 3 3 3 3 3 3 3 3 4 4 4 4 4 4 4 4 3 2 2 3 2 2 2 2 2 2 2 2 2 2
4 3 2 3 4 3 2 6 3 3 4 3 4 4 4 3 3 2 2 3 3 3 3 4 3 3 2 3 3 3 4 3 3 3 3 3 3 2 2 2 2 2 2 2 2 2 2 2 2
3 4 3 3 4 4 5 4 1 4 4 4 4 4 3 2 2 2 2 2 2 2 2 3 3 3 3 2 2 2 3 3 3 3 3 3 3 2 3 2 2 2 2 1 2 1 2 2 2
3 2 1 2 3 5 5 4 2 0 1 2 2 2 1 1 1 1 1 1 1 2 1 2 2 3 3 3 3 2 2 3 3 3 3 3 3 3 3 2 2 2 2 2 2 2 2 2 2
3 2 3 3 3 3 3 2 2 2 2 2 1 2 2 1 1 1 1 1 1 1 1 1 2 2 2 2 2 2 2 3 3 3 3 3 3 3 3 3 3 2 2 2 2 2 2 2 2
2 3 4 3 4 3 3 4 2 5 4 3 1 0 1 1 1 1 1 2 2 1 1 1 1 2 2 2 2 2 2 2 3 3 3 3 3 3 3 3 3 3 2 2 3 3 2 2 3
Wind_Direction
300 277 256 254 244 235 244 239 155 87 57 45 32 29 30 34 43 105 134 105 110 116 120 118 112 108 105 100 96 92 90 91 87 86 87 86 86 84 83 83 84 84 84 83 84 84 82 79 78
292 277 257 238 240 241 240 201 172 105 78 70 44 38 62 77 79 106 122 109 113 112 116 117 113 110 107 103 99 95 92 90 88 86 87 87 86 85 83 82 84 84 84 83 86 87 85 82 79
276 265 250 236 236 245 253 95 108 97 105 143 131 40 36 73 86 106 117 122 115 110 111 113 113 111 107 104 100 96 94 92 89 86 86 87 87 86 84 83 84 84 83 83 85 88 87 83 79
273 242 241 243 250 257 302 73 85 122 140 162 136 108 80 49 67 104 116 123 118 114 109 112 114 112 110 105 102 100 97 93 92 89 85 83 85 88 88 87 85 84 84 84 85 87 88 86 79
247 247 235 240 247 253 311 73 91 216 170 161 148 116 96 72 87 106 117 119 114 113 111 117 115 114 111 108 106 103 100 97 93 91 88 86 86 89 93 93 91 87 87 87 86 85 88 88 82
254 245 241 241 242 233 190 157 221 252 172 137 154 129 106 111 108 116 117 111 105 106 110 118 114 114 112 110 110 107 103 100 97 92 92 94 94 92 94 96 98 96 93 90 88 85 85 88 86
258 258 255 260 258 240 198 151 217 244 199 130 190 127 121 123 117 123 119 113 108 104 104 110 113 112 110 110 109 107 104 101 98 93 88 88 89 92 96 98 99 100 96 94 94 92 90 91 87
283 278 257 258 256 251 94 66 332 331 348 19 355 132 128 133 124 123 119 114 111 108 109 108 113 111 110 110 108 109 107 105 101 96 91 85 87 93 95 101 106 106 102 100 103 102 97 97 94
273 256 254 261 272 278 100 224 326 358 355 47 42 61 107 126 125 124 122 122 124 115 111 114 109 108 111 120 119 113 111 110 112 111 108 100 99 100 101 105 108 112 111 111 112 114 108 109 109
222 243 253 288 329 346 16 306 263 218 228 191 115 96 115 129 139 148 153 153 149 138 128 123 112 103 102 108 112 114 120 119 116 117 123 120 103 101 100 110 117 117 119 123 130 134 129 134 144
226 248 269 307 347 345 323 312 296 242 238 224 172 142 142 147 153 163 167 157 145 138 135 130 126 111 100 86 103 97 109 120 119 101 98 99 97 108 115 123 128 132 135 141 143 154 160 154 149
250 276 292 300 334 324 301 283 272 273 272 354 62 149 154 163 170 175 169 153 138 132 130 124 123 119 110 99 96 101 91 95 91 97 102 72 74 97 117 122 138 154 165 166 164 170 169 160 157
244 267 277 283 300 293 290 276 277 262 260 299 44 142 175 178 174 174 167 151 141 139 134 126 120 120 117 110 97 89 83 84 80 81 91 78 72 95 89 118 130 159 171 171 155 153 130 129 144
272 269 272 264 257 262 267 267 256 249 223 199 186 196 199 183 172 166 159 153 152 149 144 133 128 122 121 121 118 99 88 94 78 76 71 76 63 75 76 77 90 103 177 163 140 143 116 112 113
266 264 260 240 236 236 269 262 234 225 214 212 203 205 198 185 180 177 167 156 152 148 141 136 135 126 127 125 129 113 103 107 99 92 87 80 71 71 81 92 79 68 49 144 130 136 120 130 117
237 242 245 222 212 213 238 262 242 199 202 222 216 211 205 192 185 170 151 147 141 140 142 142 141 137 136 129 131 112 106 105 104 103 97 89 85 88 87 112 108 79 65 105 140 163 138 164 153
221 243 247 238 201 203 230 263 259 222 220 227 220 210 200 192 179 162 149 143 139 142 136 139 142 143 143 136 126 111 104 104 96 93 89 85 90 104 101 109 110 101 88 89 145 121 140 153 154
253 259 262 246 199 224 243 259 261 255 245 236 223 212 198 183 183 166 148 140 139 139 138 136 141 141 139 136 130 124 108 104 85 84 93 103 100 112 109 109 97 105 109 66 56 119 130 150 150
303 291 285 299 339 267 260 268 265 241 234 233 226 214 195 189 171 145 137 137 140 134 130 142 137 145 139 145 158 159 166 161 146 109 109 125 101 98 105 109 119 114 124 120 103 110 129 137 126
280 282 284 297 335 294 277 274 266 232 228 227 221 208 188 177 164 152 150 153 157 156 146 145 154 155 153 160 170 172 169 170 170 109 107 143 144 142 145 138 150 132 140 130 128 129 148 196 159
261 261 278 292 302 266 276 282 245 234 222 213 210 203 190 181 173 163 163 162 159 163 164 162 169 159 160 159 145 137 125 146 161 195 206 172 146 147 156 161 151 156 163 166 167 167 164 192 218
267 292 288 285 290 275 241 285 265 215 213 209 207 200 198 178 166 165 163 165 168 167 156 163 167 168 171 166 162 163 181 193 203 196 197 189 160 138 158 165 156 155 162 177 188 175 180 177 197
286 321 288 276 266 277 251 252 273 208 224 219 204 191 185 173 170 166 162 165 162 151 156 174 171 178 178 180 178 181 197 198 180 175 179 190 176 147 153 165 160 162 174 181 183 177 172 183 192
294 290 272 259 256 259 234 226 272 214 235 226 186 169 162 149 133 132 135 140 142 139 152 174 177 188 185 183 182 186 193 191 182 192 198 195 189 181 170 169 163 171 173 180 185 181 180 190 193
267 264 291 254 227 244 236 228 251 161 60 61 121 126 118 109 119 126 129 142 154 163 176 180 180 188 185 182 182 183 185 191 195 199 202 193 187 190 197 189 189 185 183 179 171 177 194 192 187
224 226 218 239 249 272 236 230 247 103 85 69 82 96 100 102 112 134 151 160 167 176 184 178 179 184 182 177 183 187 187 193 207 199 192 197 199 195 183 186 196 202 193 189 163 167 197 199 201
221 230 262 286 291 279 240 240 221 104 94 96 94 92 105 114 119 123 133 140 151 167 187 177 174 180 183 179 175 181 188 190 192 189 186 196 192 181 176 187 192 188 188 179 165 190 215 205 213
278 290 196 216 250 261 252 240 258 104 119 116 112 125 134 120 119 121 134 136 146 150 157 153 164 175 178 172 179 186 193 191 182 183 185 188 188 174 176 190 194 192 190 185 179 196 217 217 225
211 238 236 233 245 252 270 273 356 52 75 119 159 173 174 156 151 159 167 157 135 126 132 155 161 163 177 176 171 176 193 193 185 184 190 186 180 173 181 188 190 198 205 194 187 202 206 221 234
217 228 210 221 251 245 261 267 8 49 55 59 61 57 126 154 165 153 154 147 140 142 167 207 186 183 194 184 178 189 191 185 183 189 191 179 179 180 183 185 190 200 206 203 205 206 206 214 226
Height
1493 1494 1495 1498 1499 1499 1492 1480 1475 1478 1480 1483 1484 1485 1488 1492 1496 1507 1507 1506 1506 1506 1508 1510 1512 1513 1515 1516 1517 1518 1519 1520 1521 1521 1522 1523 1524 1524 1525 1526 1526 1527 1528 1528 1529 1530 1531 1531 1532
1493 1494 1497 1497 1498 1500 1487 1477 1477 1479 1482 1485 1486 1487 1489 1494 1498 1502 1504 1505 1506 1507 1508 1510 1512 1514 1515 1516 1518 1519 1519 1520 1521 1522 1523 1524 1524 1525 1526 1526 1527 1528 1528 1529 1530 1530 1531 1532 1533
1493 1494 1496 1493 1492 1490 1482 1475 1477 1480 1483 1486 1488 1489 1492 1497 1500 1501 1503 1505 1506 1507 1508 1510 1512 1514 1515 1516 1518 1519 1520 1521 1522 1522 1523 1524 1525 1525 1526 1527 1527 1528 1529 1530 1530 1531 1532 1533 1534
1494 1495 1494 1493 1488 1478 1477 1477 1478 1481 1484 1486 1487 1491 1495 1499 1500 1501 1503 1505 1506 1507 1508 1510 1512 1514 1515 1516 1518 1519 1520 1521 1522 1523 1524 1524 1525 1526 1527 1527 1528 1528 1529 1530 1531 1532 1532 1533 1534
1494 1493 1492 1490 1483 1477 1476 1478 1480 1482 1484 1485 1487 1491 1496 1499 1500 1501 1503 1505 1506 1507 1508 1510 1512 1513 1515 1516 1517 1519 1520 1521 1522 1523 1524 1524 1525 1526 1527 1528 1528 1529 1529 1530 1531 1532 1533 1534 1535
1494 1490 1492 1489 1480 1476 1476 1479 1481 1482 1483 1485 1488 1490 1497 1499 1500 1501 1503 1504 1506 1507 1509 1510 1512 1513 1515 1516 1517 1518 1519 1520 1522 1523 1524 1524 1525 1526 1527 1527 1528 1529 1530 1530 1531 1532 1533 1534 1535
1493 1490 1488 1483 1479 1477 1477 1479 1481 1482 1483 1486 1488 1490 1496 1498 1500 1501 1503 1504 1506 1507 1508 1510 1511 1513 1514 1515 1517 1518 1519 1520 1521 1522 1523 1524 1525 1526 1526 1527 1528 1529 1529 1530 1531 1532 1533 1534 1535
1490 1489 1485 1481 1479 1478 1478 1480 1482 1483 1485 1487 1488 1490 1494 1497 1499 1501 1502 1504 1505 1507 1508 1509 1510 1512 1513 1515 1516 1517 1518 1519 1520 1521 1522 1523 1524 1525 1526 1527 1527 1528 1529 1530 1530 1531 1532 1533 1534
1490 1492 1487 1481 1479 1478 1479 1481 1484 1485 1486 1487 1489 1490 1492 1495 1497 1500 1502 1503 1505 1506 1507 1509 1510 1511 1512 1514 1515 1516 1517 1518 1520 1521 1522 1522 1523 1524 1525 1526 1526 1527 1528 1529 1530 1531 1532 1533 1534
1489 1491 1484 1480 1479 1479 1480 1482 1484 1485 1486 1488 1490 1491 1492 1494 1496 1499 1500 1502 1504 1505 1507 1508 1509 1510 1512 1513 1514 1515 1516 1517 1518 1519 1520 1521 1522 1523 1524 1525 1525 1526 1527 1528 1529 1530 1531 1532 1533
1485 1485 1482 1481 1481 1481 1482 1483 1485 1485 1486 1487 1489 1490 1491 1493 1496 1498 1499 1501 1503 1504 1505 1506 1508 1509 1510 1511 1512 1513 1515 1516 1517 1518 1519 1520 1521 1522 1522 1523 1524 1525 1526 1527 1528 1529 1530 1531 1532
1484 1483 1482 1482 1483 1483 1484 1484 1485 1485 1486 1486 1487 1489 1490 1492 1494 1496 1498 1500 1501 1502 1504 1505 1506 1507 1508 1510 1511 1512 1513 1514 1515 1516 1517 1518 1519 1520 1520 1521 1522 1523 1524 1525 1526 1527 1528 1529 1531
1483 1483 1483 1483 1483 1484 1484 1484 1484 1484 1485 1485 1486 1488 1489 1491 1493 1495 1497 1498 1499 1501 1502 1503 1504 1505 1507 1508 1509 1510 1511 1512 1513 1514 1515 1516 1517 1518 1518 1519 1520 1521 1522 1523 1524 1525 1526 1528 1529
1482 1482 1483 1483 1483 1484 1484 1483 1484 1482 1483 1484 1485 1487 1488 1489 1490 1492 1494 1496 1497 1498 1500 1501 1502 1503 1504 1506 1507 1508 1509 1510 1512 1512 1513 1514 1515 1516 1516 1517 1518 1519 1520 1521 1523 1524 1525 1526 1527
1482 1483 1482 1481 1481 1482 1483 1482 1479 1479 1481 1482 1483 1485 1486 1487 1489 1490 1492 1493 1495 1496 1497 1499 1500 1501 1502 1503 1505 1506 1507 1508 1509 1510 1511 1512 1512 1513 1514 1515 1516 1517 1518 1519 1521 1522 1523 1524 1525
1482 1483 1483 1477 1478 1480 1485 1482 1476 1477 1478 1480 1481 1482 1484 1485 1486 1488 1489 1491 1492 1493 1495 1496 1497 1498 1500 1501 1502 1503 1504 1505 1506 1507 1508 1509 1510 1511 1511 1512 1513 1514 1516 1517 1518 1519 1520 1522 1523
1482 1484 1480 1477 1475 1477 1481 1479 1475 1475 1476 1477 1478 1480 1481 1483 1484 1485 1487 1488 1489 1490 1492 1493 1494 1496 1497 1498 1500 1501 1502 1503 1504 1504 1505 1506 1507 1508 1509 1510 1510 1511 1513 1514 1516 1517 1518 1519 1520
1483 1480 1475 1475 1474 1476 1479 1477 1474 1474 1474 1474 1476 1477 1478 1480 1481 1483 1484 1485 1487 1488 1489 1490 1491 1493 1494 1495 1497 1498 1499 1500 1501 1502 1503 1504 1505 1505 1506 1507 1508 1509 1510 1511 1513 1514 1516 1517 1518
1479 1479 1477 1474 1474 1477 1477 1474 1471 1471 1471 1472 1473 1474 1475 1476 1479 1480 1481 1483 1484 1485 1486 1487 1488 1490 1491 1492 1493 1494 1495 1497 1498 1499 1500 1501 1502 1503 1504 1504 1505 1506 1507 1508 1510 1511 1513 1514 1516
1481 1481 1479 1477 1475 1477 1476 1472 1467 1466 1467 1468 1469 1470 1472 1474 1476 1477 1479 1480 1481 1482 1483 1484 1485 1487 1488 1489 1490 1492 1493 1494 1495 1496 1497 1498 1499 1500 1501 1502 1503 1504 1505 1506 1507 1509 1510 1511 1513
1480 1482 1480 1479 1477 1476 1477 1472 1464 1461 1462 1464 1466 1467 1469 1471 1473 1474 1476 1477 1479 1480 1481 1482 1483 1484 1486 1487 1488 1489 1491 1492 1492 1493 1494 1495 1496 1497 1498 1499 1500 1501 1502 1503 1504 1506 1507 1508 1510
1481 1479 1479 1479 1483 1482 1477 1482 1463 1458 1460 1461 1462 1464 1466 1468 1470 1471 1473 1474 1476 1477 1478 1479 1480 1481 1482 1484 1485 1486 1487 1487 1488 1490 1491 1492 1493 1494 1495 1496 1497 1498 1499 1500 1502 1503 1505 1506 1507
1480 1479 1479 1479 1482 1484 1477 1480 1467 1458 1459 1458 1459 1461 1464 1466 1468 1469 1470 1472 1473 1474 1475 1476 1477 1478 1479 1480 1481 1483 1484 1485 1486 1487 1488 1489 1490 1491 1492 1493 1494 1495 1496 1498 1499 1500 1502 1503 1504
1480 1480 1480 1479 1483 1488 1474 1477 1469 1460 1456 1455 1456 1458 1461 1463 1465 1466 1468 1469 1470 1471 1472 1473 1474 1475 1476 1477 1478 1479 1481 1483 1483 1484 1485 1486 1487 1488 1489 1490 1491 1492 1494 1495 1496 1497 1499 1500 1501
1482 1486 1490 1489 1490 1483 1468 1470 1465 1454 1453 1454 1455 1457 1459 1461 1463 1464 1465 1467 1468 1469 1470 1470 1471 1472 1473 1474 1475 1476 1478 1479 1480 1481 1482 1483 1483 1484 1485 1486 1488 1489 1491 1492 1493 1494 1496 1497 1497
1482 1483 1489 1490 1483 1475 1469 1470 1460 1453 1453 1453 1454 1456 1459 1461 1462 1463 1464 1465 1465 1466 1467 1468 1469 1469 1470 1471 1472 1473 1474 1476 1477 1478 1479 1480 1481 1482 1482 1483 1485 1486 1487 1488 1490 1491 1492 1493 1494
1480 1482 1479 1484 1482 1482 1470 1459 1454 1453 1454 1455 1456 1457 1459 1460 1461 1461 1462 1463 1463 1464 1465 1466 1466 1467 1468 1469 1469 1470 1471 1472 1474 1475 1476 1477 1478 1479 1480 1481 1481 1482 1483 1485 1486 1487 1488 1489 1490
1480 1479 1483 1486 1486 1479 1466 1460 1461 1456 1456 1456 1457 1457 1458 1460 1460 1460 1460 1461 1461 1462 1463 1463 1464 1465 1465 1466 1467 1467 1468 1469 1470 1471 1472 1473 1475 1476 1477 1478 1478 1479 1480 1481 1482 1483 1485 1486 1486
1482 1482 1481 1482 1480 1480 1473 1468 1456 1455 1455 1456 1457 1457 1458 1459 1459 1459 1459 1459 1459 1460 1460 1461 1461 1462 1462 1463 1464 1464 1465 1466 1467 1468 1469 1470 1471 1472 1473 1474 1475 1476 1477 1478 1478 1479 1481 1481 1482
1478 1479 1482 1485 1482 1477 1476 1472 1456 1456 1455 1456 1457 1457 1457 1457 1457 1457 1457 1457 1457 1457 1458 1459 1459 1459 1460 1460 1461 1462 1462 1463 1464 1465 1466 1467 1468 1469 1470 1471 1472 1472 1473 1474 1475 1476 1477 1478 1478